Wind_Speed
19 18 17 17 18 18 18 18 18 18 16 15 14 13 13 12 11 10 10 9 9 8 8 8 9 9 10 10 10 10 10 9 10 10 9 9 10 10 10 10 10 9 9 8 8 8 8 7 7
18 17 17 18 18 18 18 19 19 18 17 16 15 14 13 13 11 11 10 10 9 9 9 9 10 10 10 11 10 10 9 10 10 10 9 9 9 9 9 9 9 9 8 7 7 7 7 7 6
17 17 17 18 20 19 19 20 20 18 17 17 16 15 14 13 12 11 11 11 10 9 9 10 10 10 10 11 11 10 10 10 10 9 9 9 8 8 8 9 8 8 8 7 7 7 7 6 6
17 18 18 20 20 20 20 20 20 19 19 18 16 15 14 13 13 12 12 11 11 11 10 10 10 10 10 11 11 10 10 9 9 9 9 9 8 8 8 8 8 8 7 7 7 7 6 6 6
16 16 18 19 20 20 20 20 20 20 19 18 17 16 15 14 13 12 12 11 11 11 11 10 10 10 10 11 10 10 10 9 9 8 8 8 8 8 8 8 8 7 7 7 6 6 6 5 5
15 16 17 18 19 20 20 20 20 19 18 18 17 16 16 15 13 13 12 12 11 11 11 11 11 11 10 10 10 9 9 9 8 8 8 7 7 7 7 7 6 6 6 6 6 5 5 5 4
16 16 17 17 18 19 19 19 19 19 18 17 17 16 15 15 14 13 11 11 11 11 11 12 12 12 10 10 9 9 8 8 8 7 7 7 6 7 7 6 6 5 6 6 5 5 5 4 4
15 15 16 17 17 18 19 19 19 18 18 17 17 16 16 15 15 13 12 11 11 10 10 11 12 11 10 8 8 8 7 7 7 6 6 6 6 7 7 6 6 6 5 5 5 4 4 4 3
14 15 16 17 17 17 18 18 18 18 17 17 16 15 15 14 14 13 12 11 11 10 10 10 9 9 9 8 8 8 7 7 6 6 6 6 6 7 7 6 6 5 5 5 5 4 3 3 3
14 15 16 16 16 17 17 17 17 17 16 16 15 15 14 13 13 12 12 11 11 10 9 9 8 8 8 7 6 6 6 5 5 5 5 6 6 7 6 6 5 5 5 5 4 4 3 3 2
12 14 15 15 16 16 16 16 15 16 15 15 14 14 13 13 12 12 12 12 11 10 9 9 8 8 7 6 6 6 5 4 4 4 5 5 5 6 6 6 6 5 5 4 4 3 3 2 2
12 13 13 14 15 15 16 15 14 15 14 14 13 12 11 11 11 11 10 10 10 10 10 9 8 8 7 7 6 6 5 4 4 4 5 5 5 5 5 6 5 5 4 4 3 3 2 2 1
10 10 11 12 13 13 14 14 13 13 13 14 13 12 12 11 11 9 9 9 9 9 9 9 8 7 7 6 6 6 5 4 4 4 4 5 5 5 5 5 5 5 4 4 3 2 2 1 1
7 8 9 10 11 11 12 12 12 12 11 12 12 12 11 10 10 10 9 8 8 8 8 8 8 7 7 6 6 6 5 4 4 5 4 5 5 5 4 5 5 5 5 4 3 3 3 2 2
5 6 7 8 9 10 10 11 11 11 10 10 10 10 10 10 9 8 8 7 7 7 7 7 7 7 7 6 6 6 6 5 4 4 4 4 4 4 4 4 4 5 5 4 3 4 3 3 3
3 3 4 5 6 7 8 10 10 10 10 9 9 9 9 9 9 8 7 6 6 6 6 6 6 7 6 6 6 6 6 6 5 4 4 4 3 4 3 4 3 3 4 4 4 4 4 4 5
3 2 1 2 4 5 6 7 8 8 9 9 8 8 9 9 9 7 6 6 5 5 5 5 5 5 5 5 5 5 5 5 5 5 4 3 3 3 3 3 2 3 3 4 4 4 4 5 5
5 3 2 2 3 4 4 5 6 7 7 8 8 8 8 8 7 6 6 6 5 4 4 4 4 5 5 4 5 5 4 4 5 4 3 3 2 2 2 2 1 1 1 2 3 4 5 5 6
6 6 5 5 5 5 4 5 5 6 7 7 7 8 8 7 6 5 6 5 5 3 3 4 4 3 3 3 3 3 3 3 4 3 3 2 2 2 1 1 1 1 1 2 3 4 5 5 6
8 8 7 8 7 7 6 5 5 5 6 6 7 7 8 7 6 6 5 5 4 3 3 3 3 2 1 2 2 2 2 2 2 2 1 1 1 1 1 0 0 1 1 2 3 4 5 5 6
10 10 9 9 9 8 8 5 4 5 6 6 7 7 8 7 7 6 5 4 3 3 3 3 3 2 2 1 1 0 1 1 2 2 2 1 1 1 2 2 2 2 2 2 2 3 3 4 5
12 12 11 11 11 10 9 7 5 6 6 7 7 8 8 7 7 6 5 4 4 3 4 3 3 3 3 2 1 1 1 1 1 1 1 1 1 1 2 3 3 3 3 4 4 4 4 4 5
13 13 13 14 14 13 11 9 7 7 7 8 8 8 8 8 7 6 6 5 5 5 5 5 4 4 3 3 3 3 3 3 2 2 2 3 3 3 3 4 4 5 5 5 5 5 5 6 6
15 16 16 16 16 15 13 12 9 9 8 9 9 9 9 8 8 7 6 6 7 6 6 6 6 5 6 5 4 5 5 5 5 4 4 4 4 4 5 5 5 6 6 7 7 7 7 7 7
17 17 18 18 17 16 15 14 11 10 10 11 10 10 10 9 7 7 7 7 7 7 7 7 7 7 8 7 6 6 7 7 7 7 6 6 6 6 7 7 8 8 8 8 9 9 9 9 9
19 18 19 19 20 19 18 16 13 12 11 11 11 11 10 10 9 8 8 7 7 7 7 8 8 9 9 8 9 9 9 9 8 8 9 9 9 9 9 9 10 10 10 10 11 11 11 11 12
21 20 20 20 20 21 20 19 16 13 12 13 13 12 11 11 11 10 10 10 9 9 9 9 10 10 10 10 11 10 10 11 11 11 11 11 11 11 12 11 12 12 12 12 12 12 12 13 13
22 22 22 22 22 22 21 20 18 16 16 16 15 14 13 13 12 12 12 12 11 11 11 11 12 12 13 13 13 12 12 13 13 13 13 14 13 14 14 14 14 14 14 14 14 14 14 14 14
23 24 24 25 25 25 24 21 19 19 18 18 17 16 15 14 14 14 14 14 14 14 14 14 14 15 15 15 14 15 15 15 15 15 16 16 16 16 16 16 16 16 17 17 16 16 15 16 16
26 26 26 26 26 26 26 23 20 20 20 19 19 19 17 17 16 16 16 17 16 16 15 15 16 17 17 16 16 17 18 18 18 18 19 19 19 19 19 19 19 19 19 19 19 19 18 19 19
Wind_Direction
76 73 73 75 75 74 71 69 67 68 70 70 73 71 70 72 76 76 75 75 74 76 80 85 93 99 108 109 108 109 112 114 117 118 119 119 117 115 116 119 125 126 118 116 121 121 118 121 127
76 71 73 74 75 75 70 67 66 67 68 69 68 66 67 71 74 72 72 73 74 76 81 89 92 96 103 106 106 108 110 113 116 119 121 119 119 121 122 121 122 119 117 117 116 116 117 119 121
79 72 73 72 74 71 68 65 65 65 67 66 65 64 65 67 71 74 75 76 78 82 85 90 92 94 98 101 102 106 111 114 117 121 123 123 123 125 126 123 124 122 116 114 115 120 119 118 121
78 73 71 72 72 71 69 67 66 65 65 64 63 64 65 66 70 75 78 79 82 82 84 87 89 94 99 100 100 105 109 113 114 119 125 129 130 130 129 127 126 122 118 114 116 123 121 118 119
81 73 72 73 71 71 70 69 66 65 64 64 63 64 66 66 70 76 78 78 80 85 85 85 87 91 96 100 102 106 108 109 113 118 124 129 133 132 129 127 130 127 121 116 115 119 121 118 121
79 76 75 74 73 71 69 68 66 64 63 63 64 66 68 67 71 77 78 77 80 84 84 83 84 87 92 100 103 106 110 108 108 113 117 124 133 134 132 131 131 128 123 120 115 113 119 116 118
81 78 73 75 75 71 67 66 66 65 63 61 62 66 70 66 67 71 77 78 78 80 80 82 82 79 84 92 100 103 106 108 109 112 119 124 132 137 134 130 129 130 130 125 119 115 122 118 111
81 78 75 74 74 71 68 66 64 62 61 60 61 65 68 67 65 66 73 76 77 78 78 79 80 80 81 85 92 96 99 107 111 115 123 132 134 135 134 131 128 127 130 128 124 121 119 115 106
82 77 76 74 74 69 67 65 63 62 59 58 57 60 63 66 64 64 68 73 75 75 73 74 77 81 83 85 89 93 98 105 114 122 125 129 131 132 135 135 134 128 126 126 125 122 120 121 106
82 79 77 75 74 70 66 63 60 59 58 57 56 59 60 62 62 65 70 74 73 71 72 74 77 80 83 87 88 93 100 107 114 124 124 126 131 134 139 139 137 130 124 122 126 125 119 117 109
83 78 78 78 74 69 65 62 56 54 55 55 53 55 57 56 57 62 66 68 70 71 71 71 74 74 76 81 86 91 101 114 123 134 137 133 135 140 142 144 139 136 133 129 130 129 126 123 119
81 78 78 77 75 68 62 56 52 53 53 52 49 50 51 52 54 60 65 63 66 67 67 66 65 69 73 75 81 91 95 112 132 141 144 142 145 147 147 148 150 145 145 143 143 139 138 138 129
79 75 78 79 75 69 61 53 51 50 51 48 44 43 45 49 54 55 61 62 62 63 60 61 60 60 63 66 74 86 96 106 130 144 151 154 156 154 155 159 161 161 163 166 173 169 175 186 215
78 80 81 77 72 66 60 56 52 50 48 45 43 41 41 46 51 53 53 54 57 61 58 56 55 55 54 59 73 80 85 93 120 136 140 154 162 165 161 165 175 177 180 186 196 208 212 228 255
87 86 85 76 69 61 56 56 54 48 42 39 40 41 40 38 40 42 46 49 50 53 51 51 51 51 50 52 65 71 72 81 107 129 136 149 159 165 170 169 180 191 196 207 215 226 232 244 263
123 100 85 72 59 48 46 49 51 43 35 32 36 37 34 29 26 24 30 37 39 45 45 45 45 46 46 52 67 68 73 77 87 112 134 142 139 156 166 171 189 204 212 219 226 236 242 252 263
185 162 83 59 32 29 32 37 43 38 33 26 28 26 25 22 20 16 14 16 24 37 39 34 35 37 41 55 68 75 76 78 86 95 109 130 143 151 160 169 192 214 223 224 225 235 247 257 261
233 237 263 302 325 343 358 13 26 24 24 21 13 10 9 13 13 12 5 358 2 19 24 22 26 29 36 59 73 74 81 92 96 96 101 112 125 135 157 175 203 234 236 229 229 240 248 257 265
246 251 266 278 288 299 322 346 359 3 7 5 358 357 0 2 359 352 348 342 339 352 11 12 13 19 45 68 78 78 84 98 99 100 101 104 106 103 124 120 199 227 242 253 260 257 256 259 263
256 263 268 268 272 282 304 331 339 339 344 346 344 344 349 351 348 342 332 327 323 324 350 352 360 19 53 69 103 106 100 109 109 98 113 119 118 119 136 101 340 284 277 294 276 264 263 265 263
262 268 270 267 269 276 291 302 320 323 327 329 333 334 333 338 333 340 333 325 319 314 321 325 333 344 342 358 26 125 133 142 155 142 136 134 149 252 251 261 276 287 301 322 331 310 304 290 276
259 268 273 274 271 271 281 283 294 301 304 313 318 327 330 333 321 319 328 318 316 293 295 301 301 307 309 301 308 308 257 238 213 185 194 210 221 250 264 269 271 276 281 290 295 302 293 288 296
259 263 267 271 272 272 276 281 291 290 294 302 306 315 320 327 321 319 329 319 310 296 288 281 281 281 289 291 285 280 276 276 273 257 252 253 256 265 268 275 270 273 277 280 282 289 288 285 288
259 262 267 267 268 269 275 278 282 282 288 291 297 304 309 314 313 316 315 312 308 299 290 278 274 282 290 284 276 275 273 272 275 268 264 268 271 279 280 281 274 271 277 279 279 281 285 282 285
260 263 268 268 266 269 273 274 282 284 283 286 290 296 300 307 304 304 310 308 302 298 294 281 281 285 286 281 279 275 275 275 267 268 274 272 271 275 277 281 281 279 275 276 276 278 280 280 282
258 262 268 269 267 267 269 273 279 283 280 282 288 292 294 297 295 295 296 296 290 286 287 285 280 280 280 277 276 277 277 276 270 271 274 276 276 276 276 281 278 278 279 279 278 277 278 278 279
256 261 267 268 267 266 268 272 273 275 275 278 284 285 288 288 288 288 287 286 284 280 277 278 276 275 273 273 273 274 275 274 276 276 278 279 282 280 279 279 279 278 280 284 281 281 281 280 282
256 260 264 267 269 270 271 274 275 277 277 278 279 279 281 281 280 282 284 283 282 280 278 274 269 268 268 268 268 268 271 276 280 285 287 283 282 284 283 281 281 279 280 286 286 284 282 283 285
259 261 264 267 269 270 273 274 276 276 277 276 274 275 275 278 281 282 282 283 285 281 278 275 274 272 271 267 269 269 268 272 277 282 285 282 281 282 280 281 283 281 281 283 284 282 280 282 283
259 262 265 267 269 270 274 276 273 271 275 276 274 273 274 274 275 279 280 280 284 284 282 280 277 274 270 268 269 270 270 272 274 279 283 283 281 282 280 280 280 280 282 283 281 281 280 281 283
Height
5885 5885 5885 5884 5884 5884 5882 5881 5880 5880 5880 5880 5879 5879 5879 5879 5880 5882 5879 5878 5877 5877 5877 5877 5876 5876 5877 5877 5878 5879 5880 5880 5881 5882 5883 5883 5884 5886 5887 5888 5888 5889 5890 5891 5892 5893 5893 5894 5894
5888 5888 5888 5887 5886 5885 5885 5884 5883 5882 5882 5882 5881 5881 5881 5880 5880 5880 5879 5879 5879 5879 5879 5878 5878 5878 5878 5879 5879 5880 5881 5882 5882 5883 5884 5885 5886 5887 5888 5889 5890 5890 5891 5892 5893 5894 5894 5895 5895
5891 5891 5891 5890 5888 5888 5887 5887 5886 5885 5884 5884 5884 5883 5883 5882 5882 5882 5881 5881 5881 5881 5880 5880 5879 5880 5880 5880 5881 5881 5882 5883 5883 5884 5885 5886 5887 5888 5889 5890 5891 5892 5893 5893 5894 5895 5895 5896 5896
5894 5894 5893 5892 5891 5890 5890 5889 5888 5888 5887 5887 5886 5885 5884 5884 5884 5884 5883 5883 5883 5883 5882 5881 5881 5881 5881 5882 5882 5883 5883 5884 5885 5885 5886 5887 5888 5889 5890 5891 5892 5893 5894 5894 5895 5896 5896 5897 5897
5896 5896 5896 5894 5894 5893 5892 5892 5891 5890 5890 5889 5889 5888 5886 5886 5885 5885 5885 5885 5885 5884 5884 5883 5883 5883 5883 5883 5884 5884 5885 5885 5886 5887 5887 5888 5889 5890 5891 5892 5893 5894 5895 5895 5896 5896 5897 5898 5898
5899 5899 5898 5897 5897 5896 5895 5895 5894 5893 5893 5892 5891 5890 5889 5889 5888 5888 5887 5887 5887 5886 5886 5885 5885 5885 5885 5885 5885 5886 5886 5886 5887 5888 5888 5889 5890 5891 5892 5893 5894 5895 5896 5896 5897 5897 5898 5898 5899
5902 5901 5900 5899 5899 5899 5898 5898 5897 5896 5896 5895 5894 5893 5892 5891 5891 5890 5890 5889 5888 5888 5888 5887 5887 5886 5887 5887 5887 5887 5887 5887 5888 5888 5889 5890 5891 5892 5893 5894 5895 5895 5896 5897 5898 5899 5899 5899 5900
5903 5904 5901 5901 5901 5901 5901 5900 5899 5899 5898 5897 5896 5895 5894 5894 5893 5892 5892 5891 5891 5890 5890 5889 5889 5888 5888 5888 5888 5888 5888 5888 5889 5889 5890 5891 5892 5892 5893 5894 5895 5896 5897 5898 5899 5899 5900 5900 5900
5905 5906 5904 5904 5903 5904 5903 5902 5902 5901 5901 5900 5899 5898 5897 5896 5895 5895 5894 5893 5893 5892 5892 5891 5890 5890 5890 5889 5889 5889 5889 5889 5890 5890 5891 5892 5892 5893 5894 5895 5896 5897 5898 5898 5899 5900 5900 5900 5900
5908 5907 5906 5906 5906 5905 5905 5904 5904 5903 5903 5902 5901 5900 5899 5898 5897 5897 5896 5895 5895 5894 5893 5892 5892 5891 5891 5891 5890 5890 5890 5890 5890 5891 5891 5892 5893 5894 5895 5896 5897 5898 5898 5899 5900 5900 5901 5901 5901
5909 5909 5908 5908 5908 5907 5907 5907 5906 5905 5905 5904 5903 5902 5901 5900 5899 5898 5897 5897 5896 5895 5895 5894 5893 5893 5892 5891 5891 5891 5890 5890 5890 5891 5892 5892 5893 5894 5895 5896 5897 5898 5899 5900 5900 5901 5901 5902 5902
5911 5911 5910 5910 5910 5910 5909 5908 5908 5907 5907 5906 5905 5904 5903 5901 5901 5900 5899 5898 5897 5897 5896 5895 5895 5894 5893 5892 5892 5891 5890 5890 5890 5891 5892 5893 5894 5895 5896 5897 5897 5898 5899 5900 5901 5901 5902 5902 5902
5913 5913 5912 5912 5912 5911 5911 5910 5909 5908 5908 5907 5906 5905 5904 5903 5902 5901 5900 5900 5899 5898 5897 5896 5896 5895 5894 5893 5892 5891 5891 5890 5890 5891 5892 5893 5894 5895 5896 5897 5897 5898 5899 5900 5901 5901 5902 5902 5902
5914 5914 5914 5913 5913 5912 5912 5911 5911 5910 5909 5909 5908 5907 5906 5905 5904 5903 5901 5901 5900 5899 5898 5897 5896 5896 5895 5894 5893 5892 5891 5890 5890 5891 5892 5893 5894 5896 5896 5897 5897 5898 5899 5900 5900 5901 5901 5902 5902
5915 5915 5915 5915 5914 5913 5914 5913 5912 5911 5911 5910 5909 5908 5907 5905 5905 5904 5902 5901 5901 5900 5899 5898 5897 5896 5895 5894 5894 5893 5892 5892 5892 5892 5893 5894 5895 5895 5896 5896 5897 5898 5898 5899 5900 5900 5901 5901 5901
5915 5916 5915 5915 5915 5914 5916 5914 5913 5912 5911 5911 5910 5908 5907 5906 5905 5904 5903 5902 5901 5900 5900 5899 5898 5897 5896 5895 5894 5894 5893 5893 5893 5893 5894 5894 5895 5895 5896 5896 5897 5897 5898 5898 5899 5899 5900 5900 5900
5915 5915 5915 5915 5915 5914 5914 5914 5914 5912 5912 5911 5910 5909 5908 5907 5905 5904 5903 5903 5901 5900 5900 5899 5898 5897 5896 5896 5895 5895 5894 5894 5894 5894 5894 5895 5895 5896 5896 5896 5897 5897 5897 5898 5898 5898 5899 5899 5899
5915 5915 5915 5915 5914 5914 5914 5914 5913 5912 5912 5911 5910 5909 5907 5906 5905 5904 5903 5903 5902 5901 5900 5899 5899 5898 5897 5896 5896 5895 5895 5895 5895 5895 5895 5895 5895 5896 5896 5896 5896 5896 5897 5897 5897 5897 5897 5897 5897
5914 5914 5914 5914 5914 5914 5914 5913 5913 5912 5912 5911 5910 5909 5907 5905 5904 5903 5903 5902 5901 5901 5900 5900 5899 5898 5898 5897 5896 5896 5896 5896 5896 5896 5896 5896 5896 5896 5896 5896 5896 5896 5896 5896 5896 5896 5896 5896 5896
5913 5913 5913 5913 5913 5913 5913 5913 5912 5912 5911 5910 5909 5908 5907 5905 5904 5903 5902 5901 5901 5901 5900 5900 5899 5898 5898 5897 5897 5896 5896 5896 5896 5896 5896 5896 5896 5896 5896 5896 5896 5895 5895 5895 5895 5895 5895 5895 5895
5912 5912 5912 5911 5911 5911 5912 5912 5911 5911 5910 5909 5908 5907 5907 5905 5903 5902 5901 5901 5900 5900 5900 5900 5899 5898 5898 5897 5897 5896 5896 5896 5896 5896 5896 5896 5896 5896 5896 5896 5896 5895 5895 5895 5895 5894 5894 5894 5893
5910 5910 5910 5909 5909 5909 5910 5910 5911 5910 5909 5908 5907 5906 5905 5904 5903 5901 5900 5900 5900 5900 5899 5898 5898 5898 5897 5897 5896 5896 5896 5896 5896 5896 5896 5896 5896 5896 5896 5895 5895 5895 5895 5894 5894 5893 5892 5892 5892
5907 5907 5908 5907 5907 5907 5908 5908 5909 5908 5907 5907 5906 5905 5904 5903 5902 5901 5900 5899 5899 5898 5898 5897 5897 5897 5897 5896 5896 5896 5896 5896 5895 5895 5895 5895 5895 5895 5895 5894 5894 5894 5893 5893 5892 5892 5891 5891 5891
5904 5905 5905 5905 5905 5905 5906 5906 5906 5906 5905 5905 5904 5903 5902 5902 5901 5900 5899 5898 5897 5896 5895 5895 5896 5896 5895 5895 5895 5895 5895 5894 5895 5895 5894 5894 5894 5894 5893 5893 5893 5892 5892 5892 5891 5891 5890 5889 5889
5902 5902 5902 5902 5901 5902 5903 5903 5904 5904 5903 5902 5902 5901 5900 5899 5899 5898 5897 5897 5896 5895 5894 5894 5894 5894 5894 5893 5893 5893 5893 5893 5893 5893 5893 5892 5892 5891 5891 5891 5891 5890 5890 5889 5889 5888 5888 5887 5887
5898 5899 5899 5899 5899 5899 5899 5899 5901 5901 5900 5900 5899 5899 5898 5897 5897 5896 5895 5894 5893 5893 5892 5892 5892 5892 5891 5891 5891 5891 5891 5891 5890 5891 5891 5890 5890 5890 5889 5889 5888 5888 5887 5887 5886 5886 5885 5885 5884
5893 5894 5895 5894 5894 5894 5895 5896 5897 5897 5897 5897 5897 5896 5895 5894 5894 5893 5892 5891 5890 5890 5890 5890 5890 5889 5889 5889 5889 5888 5888 5888 5888 5888 5888 5888 5888 5887 5887 5886 5886 5885 5885 5884 5883 5883 5882 5882 5881
5889 5890 5890 5890 5889 5889 5891 5891 5893 5893 5893 5893 5893 5892 5892 5891 5890 5890 5889 5888 5888 5887 5887 5886 5886 5886 5885 5885 5885 5885 5885 5885 5884 5884 5884 5884 5884 5884 5883 5883 5882 5882 5881 5881 5880 5879 5879 5878 5877
5885 5885 5885 5885 5885 5885 5885 5889 5889 5888 5889 5889 5889 5888 5887 5887 5887 5886 5885 5885 5884 5884 5883 5883 5882 5882 5881 5880 5881 5881 5881 5881 5880 5881 5881 5880 5880 5879 5879 5879 5878 5877 5877 5876 5876 5875 5875 5874 5873
5879 5879 5880 5880 5880 5880 5880 5885 5883 5883 5883 5884 5884 5883 5883 5883 5883 5882 5881 5880 5880 5879 5879 5878 5878 5877 5876 5876 5876 5876 5876 5876 5876 5876 5876 5875 5875 5874 5874 5873 5873 5873 5872 5872 5871 5871 5870 5869 5868